Austin, TX

8:25 PM CST on December 08, 2016 (GMT -0600)
Austin

Weather History for KATT - October, 2012

Change the Weather History Date:

Tuesday, October 23, 2012

  Actual Average Record
Temperature  
Mean Temperature 78 °F 69 °F  
Max Temperature 85 °F 80 °F 94 °F (2003)
Min Temperature 71 °F 59 °F 36 °F (1923)
Degree Days  
Heating Degree Days 0 1  
Month to date heating degree days 17 12  
Since 1 July heating degree days 17 14  
Cooling Degree Days 13 5  
Month to date cooling degree days 199 183  
Year to date cooling degree days 3435 3027  
Growing Degree Days 26 (Base 50)    
Moisture  
Dew Point 68 °F    
Average Humidity 74    
Maximum Humidity 90    
Minimum Humidity 58    
Precipitation  
Precipitation 0.00 in 0.14 in 4.12 in (1953)
Month to date precipitation 0.85 2.94  
Year to date precipitation 32.56 28.02  
Snow  
Snow 0.00 in - - ()
Month to date snowfall 0.0  
Since 1 July snowfall 0.0  
Since 1 September snowfall 0.0  
Snow Depth 0.00 in    
Sea Level Pressure  
Sea Level Pressure 29.95 in    
Wind  
Wind Speed 5 mph (SSE)    
Max Wind Speed 10 mph    
Max Gust Speed 17 mph    
Visibility 10 miles    
Events      
T = Trace of Precipitation, MM = Missing Value Source: NWS Daily Summary

Daily Weather History Graph

Daily Weather History Graph

Search for Another Location

Airport or City:

Trip Planner

Search our weather history database for the weather conditions in past years. The results will help you decide how hot, cold, wet, or windy it might be!

Date:

Astronomy

Oct. 23, 2012 Rise Set
Actual Time 7:39 AM CDT 6:51 PM CDT
Civil Twilight 7:14 AM CDT 7:15 PM CDT
Nautical Twilight 6:46 AM CDT 7:43 PM CDT
Astronomical Twilight 6:18 AM CDT 8:11 PM CDT
Moon 3:13 PM CDT (10/23) 1:56 AM CDT (10/23)
Length of Visible Light 12h 00m
Length of Day
11h 12m
Waxing Gibbous, 67% of the Moon is Illuminated
Oct 23
Waxing Gibbous
Oct 29
Full
Nov 6
Last Quarter
Nov 13
New
Nov 20
First Quarter

Hourly Weather History & Observations

Time (CDT) Temp. Heat Index Dew Point Humidity Pressure Visibility Wind Dir Wind Speed Gust Speed Precip Events Conditions
1:04 AM 72.0 °F - 68.0 °F 87% 29.97 in 10.0 mi SE 9.2 mph - N/A   Mostly Cloudy
2:51 AM 72.0 °F - 68.0 °F 87% 29.92 in 10.0 mi Variable 4.6 mph - N/A   Overcast
3:51 AM 72.0 °F - 68.0 °F 87% 29.91 in 10.0 mi SSE 5.8 mph - N/A   Overcast
4:51 AM 72.0 °F - 68.0 °F 87% 29.92 in 10.0 mi SSE 5.8 mph - N/A   Overcast
5:29 AM 71.1 °F - 68.0 °F 90% 29.96 in 10.0 mi SSE 4.6 mph - N/A   Overcast
5:51 AM 71.1 °F - 68.0 °F 90% 29.94 in 10.0 mi Variable 3.5 mph - N/A   Overcast
6:51 AM 71.1 °F - 68.0 °F 90% 29.94 in 10.0 mi SE 4.6 mph - N/A   Overcast
7:51 AM 71.1 °F - 68.0 °F 90% 29.95 in 10.0 mi ESE 3.5 mph - N/A   Overcast
8:51 AM 71.1 °F - 68.0 °F 90% 29.97 in 10.0 mi ESE 3.5 mph - N/A   Overcast
9:51 AM 73.0 °F - 68.0 °F 84% 29.98 in 10.0 mi Variable 4.6 mph - N/A   Overcast
10:51 AM 73.9 °F - 69.1 °F 85% 29.98 in 10.0 mi SE 3.5 mph - N/A   Overcast
11:29 AM 75.9 °F - 69.1 °F 79% 30.00 in 10.0 mi Calm Calm - N/A   Overcast
11:51 AM 77.0 °F - 69.1 °F 76% 29.97 in 10.0 mi SSE 6.9 mph - N/A   Overcast
12:07 PM 77.0 °F - 69.1 °F 76% 29.99 in 10.0 mi Variable 6.9 mph - N/A   Overcast
12:22 PM 77.0 °F - 69.1 °F 76% 29.99 in 10.0 mi Variable 4.6 mph - N/A   Overcast
12:30 PM 77.0 °F - 69.1 °F 76% 29.99 in 10.0 mi South 5.8 mph - N/A   Overcast
12:39 PM 77.0 °F - 69.1 °F 76% 29.99 in 10.0 mi South 4.6 mph - N/A   Overcast
12:51 PM 78.1 °F - 69.1 °F 74% 29.96 in 10.0 mi Variable 4.6 mph - N/A   Overcast
1:21 PM 79.0 °F - 69.1 °F 72% 29.98 in 10.0 mi Variable 4.6 mph - N/A   Overcast
1:51 PM 80.1 °F 82.7 °F 68.0 °F 67% 29.93 in 10.0 mi South 4.6 mph - N/A   Overcast
2:51 PM 81.0 °F 83.8 °F 68.0 °F 65% 29.91 in 10.0 mi South 4.6 mph - N/A   Overcast
3:51 PM 81.0 °F 83.8 °F 68.0 °F 65% 29.90 in 10.0 mi Calm Calm - N/A   Overcast
4:51 PM 82.9 °F 85.4 °F 66.9 °F 58% 29.89 in 10.0 mi Calm Calm - N/A   Scattered Clouds
5:51 PM 82.0 °F 84.1 °F 66.0 °F 58% 29.88 in 10.0 mi SSE 3.5 mph - N/A   Partly Cloudy
6:51 PM 80.1 °F 82.1 °F 66.0 °F 62% 29.89 in 10.0 mi SE 4.6 mph - N/A   Partly Cloudy
7:51 PM 79.0 °F - 66.0 °F 64% 29.91 in 10.0 mi SE 3.5 mph - N/A   Clear
8:51 PM 78.1 °F - 66.0 °F 66% 29.93 in 10.0 mi SE 6.9 mph - N/A   Clear
9:51 PM 75.9 °F - 66.0 °F 71% 29.94 in 10.0 mi SSE 8.1 mph - N/A   Clear
10:51 PM 73.9 °F - 66.0 °F 76% 29.95 in 10.0 mi SSE 5.8 mph - N/A   Clear
11:51 PM 72.0 °F - 64.9 °F 78% 29.95 in 10.0 mi South 6.9 mph - N/A   Clear